Regional Weather Roundup
Issued by NWS Huntsville, AL

Home | Current Version | Previous Version | Text Only | Print | Product List | Glossary On
Versions: 1 2 3 4 5 6 7 8 9 10 11 12 13 14 15 16 17 18 19 20 21 22 23 24 25 26 27 28 29 30 31 32 33 34 35 36 37 38 39 40 41 42 43 44 45 46 47 48 49 50
000
ASUS44 KHUN 301010
RWRHUN

WEATHER ROUNDUP FOR THE TENNESSEE VALLEY
NATIONAL WEATHER SERVICE HUNTSVILLE AL
500 AM CDT THU JUL 30 2015

ALZ001>004-301100-
NORTHWEST ALABAMA

CITY           SKY/WX    TMP DP  RH WIND       PRES   REMARKS
BANKHEAD NF      N/A     73  72  96 W1          N/A
SHOALS AIRPORT CLEAR     76  73  91 NW6       30.01S
$$

ALZ005>007-016-301100-
NORTH CENTRAL ALABAMA

CITY           SKY/WX    TMP DP  RH WIND       PRES   REMARKS
DECATUR AP     CLEAR     74  74 100 NW3       30.01R FOG
HUNTSVILLE AP  CLEAR     76  72  87 CALM      30.00R FOG
HUN NWS/UAH      N/A     76  73  90 CALM        N/A
MERIDIANVILLE  FOG       73  70  88 CALM      30.01R VSB 1/2
REDSTONE ARSN  CLEAR     74  73  97 E1        30.00R FOG
VINEMONT AP    FAIR      73  72  96 N3        30.03R FOG
$$

ALZ008>010-301100-
NORTHEAST ALABAMA

CITY           SKY/WX    TMP DP  RH WIND       PRES   REMARKS
ALBERTVILLE    CLEAR     75  75 100 CALM      30.00S FOG
FORT PAYNE     CLEAR     73  72  94 CALM      30.00R FOG
SCOTTSBORO AP  PTCLDY    75  75 100 CALM      30.00S FOG
$$

TNZ076-096-097-301100-
SOUTHEASTERN MIDDLE TENNESSEE

CITY           SKY/WX    TMP DP  RH WIND       PRES   REMARKS
TULLAHOMA      CLEAR     72  68  88 CALM      30.04S
WINCHESTER     CLEAR     73  72  94 CALM      30.02S
$$

...SURROUNDING SITES...

CITY           SKY/WX    TMP DP  RH WIND       PRES   REMARKS
ATLANTA        MOCLDY    78  73  84 CALM      29.98R
ANNISTON       CLEAR     76  73  91 CALM      29.98S
BIRMINGHAM     CLEAR     76  74  93 CALM      30.01S
CHATTANOOGA    PTCLDY    77  72  84 CALM      29.99S
DALTON         CLEAR     73  73 100 NW3       29.97F
GADSDEN        CLEAR     77  72  83 CALM      29.97S
GOLDEN TRNGL   CLEAR     75  72  88 NW5       29.98S
HALEYVILLE     FAIR      72  72 100 CALM      30.04S FOG
JACKSON TN     MOCLDY    79  75  87 N9        30.04R
MEMPHIS        PTCLDY    82  75  79 NE8       30.04R
NASHVILLE      MOCLDY    78  74  87 N8        30.03S
ROME           CLEAR     75  73  93 CALM      29.97F
TUPELO         CLEAR     76  73  91 N5        29.99S
TUSCALOOSA     CLEAR     74  73  97 CALM      29.98S
$$

...GULF COAST WEATHER...

CITY           SKY/WX    TMP DP  RH WIND       PRES   REMARKS
GULFPORT       MOCLDY    76  74  93 NW5       29.96S
PASCAGOULA     MOCLDY    76  75  97 N3        29.96
MOBILE         PTCLDY    76  75  97 NW3       29.96F
GULF SHORES    SUNNY     78  74  90 NW3       29.94S
PENSACOLA      CLEAR     77  74  90 N3        29.93F
DESTIN         MOCLDY    80  76  87 N6        29.93S
PANAMA CITY    MOCLDY    79  78  97 CALM      29.93S
APPALACHICOLA  CLOUDY    81  77  88 CALM      29.93R
$$




USA.gov is the U.S. government's official web portal to all federal, state and local government web resources and services.